Погода в Сошниках

Россия / Ивановская область     57˚14′00″N   42˚00′13″E
темп.,
°C
ветер,
м/с
пор.,
м/с
влажн.,
%
обл.,
%
осадки,
мм/ч
давл.,
гПа
погр.,
м
16 января, сб
сб1600:00−13˚ссв3695100 0.1 1011260
03:00−13˚ссв51093100 1.3 1009365
06:00−13˚ссв61193100 0.3 1006509
09:00−13˚ссв61291100 0.4 1005607
12:00−14˚ссв61194100 1.5 1003632
15:00−15˚ссв51095100 4.1 1003602
18:00−15˚с4995100 1.5 1003607
21:00−16˚с4895100 2.1 1004547
17 января, вс
вс1700:00−18˚с4894100 0.3 1005476
03:00−20˚ссз4796100 0.4 1007311
06:00−25˚ссз369792 0.0 1009121
09:00−27˚ссз349776 0.0 101289
12:00−22˚ссз35958 0.0 1014223
15:00−20˚ссз23964 0.0 101567
18:00−23˚ссз23960 0.0 101720
21:00−24˚сз12961 0.0 101820
18 января, пн
пн1800:00−24˚сз12966 0.0 101920
03:00−24˚зсз229624 0.0 101920
06:00−24˚з129661 0.0 101920
09:00−25˚юз239658 0.0 102023
12:00−19˚з239168 0.0 1020150
15:00−19˚юз229452 0.0 101939
18:00−22˚з129663 0.0 102020
21:00−22˚юз119869 0.0 102020
19 января, вт
вт1900:00−22˚юз119993 0.0 102020
03:00−22˚ююз0110091 0.1 102020
06:00−20˚в119996 0.1 102020
09:00−22˚вюв119991 0.1 102120
12:00−18˚вюв129485 0.1 1021190
15:00−19˚в119793 0.1 102120
18:00−22˚всв119968 0.0 102220
21:00−23˚в129934 0.0 102320
20 января, ср
ср2000:00−24˚ююв1110023 0.0 102420
03:00−25˚зюз0010022 0.0 102520
06:00−25˚ююв001007 0.0 102620
09:00−24˚ююз129814 0.0 102620
12:00−19˚ююз239310 0.0 1027150
15:00−19˚ююз22957 0.0 102650
18:00−22˚ююз23934 0.0 102724
21:00−22˚ююз349238 0.0 102684